NOZ173 ENVA-ENBR

Flight info

Callsign NOZ173
Flight time 0h 43m
Altitude 30000
Route OSMUM DCT KEKOD DCT LUNUR
Aircraft B38M/M-SDE1FGHILORVWXY/HB1

Departure

Time 2026-04-29 20:44
Airport Trondheim Airport, Værnes (ENVA)

Arrival

Time 2026-04-29 21:27
Airport Bergen Airport, Flesland (ENBR)
Time Latitude Longitude Altitude Speed Heading
2026-04-29 20:29 63.45503 10.91741 86 ft 0 kts 180°
2026-04-29 20:38 63.45515 10.91741 43 ft 3 kts 180°
2026-04-29 20:38 63.45534 10.91741 62 ft 3 kts 167°
2026-04-29 20:38 63.45549 10.91718 46 ft 3 kts 102°
2026-04-29 20:38 63.45550 10.91708 45 ft 0 kts 94°
2026-04-29 20:40 63.45550 10.91711 45 ft 1 kts 93°
2026-04-29 20:41 63.45562 10.91822 43 ft 14 kts 72°
2026-04-29 20:41 63.45588 10.92090 47 ft 20 kts 85°
2026-04-29 20:41 63.45592 10.92416 49 ft 22 kts 89°
2026-04-29 20:41 63.45591 10.92781 52 ft 24 kts 90°
2026-04-29 20:42 63.45590 10.93178 52 ft 26 kts 90°
2026-04-29 20:42 63.45589 10.93583 59 ft 25 kts 90°
2026-04-29 20:42 63.45610 10.93856 64 ft 14 kts 59°
2026-04-29 20:42 63.45685 10.94038 65 ft 18 kts 42°
2026-04-29 20:43 63.45743 10.94084 60 ft 7 kts 338°
2026-04-29 20:43 63.45756 10.94023 59 ft 1 kts 268°
2026-04-29 20:43 63.45756 10.93970 57 ft 19 kts 268°
2026-04-29 20:43 63.45755 10.92983 50 ft 104 kts 270°
2026-04-29 20:44 63.45756 10.90858 42 ft 169 kts 269°
2026-04-29 20:44 63.45780 10.87997 650 ft 186 kts 270°
2026-04-29 20:44 63.45780 10.85173 1786 ft 184 kts 269°
2026-04-29 20:44 63.45745 10.82309 2863 ft 184 kts 270°
2026-04-29 20:45 63.45717 10.79428 3787 ft 193 kts 271°
2026-04-29 20:45 63.45590 10.76195 4254 ft 226 kts 259°
2026-04-29 20:45 63.44964 10.72814 5133 ft 241 kts 240°
2026-04-29 20:45 63.43817 10.70076 6313 ft 249 kts 224°
2026-04-29 20:46 63.42305 10.67819 6960 ft 273 kts 213°
2026-04-29 20:46 63.40582 10.65970 7958 ft 276 kts 210°
2026-04-29 20:46 63.38803 10.64217 8826 ft 285 kts 210°
2026-04-29 20:46 63.36979 10.62397 9773 ft 289 kts 211°
2026-04-29 20:47 63.35131 10.60504 10635 ft 296 kts 212°
2026-04-29 20:47 63.33208 10.58499 11154 ft 315 kts 212°
2026-04-29 20:47 63.31165 10.56340 11573 ft 335 kts 212°
2026-04-29 20:47 63.28996 10.54033 11945 ft 356 kts 212°
2026-04-29 20:48 63.26702 10.51588 12245 ft 376 kts 212°
2026-04-29 20:48 63.24288 10.49023 12565 ft 393 kts 211°
2026-04-29 20:48 63.21782 10.46374 13086 ft 404 kts 211°
2026-04-29 20:48 63.19240 10.43707 13863 ft 406 kts 211°
2026-04-29 20:49 63.16667 10.41013 14504 ft 412 kts 211°
2026-04-29 20:49 63.14060 10.38290 15121 ft 416 kts 211°
2026-04-29 20:49 63.11431 10.35550 15724 ft 421 kts 211°
2026-04-29 20:49 63.08770 10.32781 16334 ft 425 kts 211°
2026-04-29 20:50 63.06080 10.29990 16895 ft 429 kts 211°
2026-04-29 20:50 63.03360 10.27173 17429 ft 435 kts 211°
2026-04-29 20:50 63.00603 10.24325 17995 ft 439 kts 211°
2026-04-29 20:50 62.97825 10.21459 18568 ft 443 kts 211°
2026-04-29 20:51 62.95023 10.18575 19078 ft 447 kts 211°
2026-04-29 20:51 62.92195 10.15671 19568 ft 450 kts 211°
2026-04-29 20:51 62.89351 10.12759 20108 ft 453 kts 211°
2026-04-29 20:51 62.86485 10.09827 20610 ft 455 kts 211°
2026-04-29 20:52 62.83830 10.06208 21066 ft 447 kts 226°
2026-04-29 20:52 62.81593 10.01525 21517 ft 446 kts 231°
2026-04-29 20:52 62.79386 9.96714 21972 ft 449 kts 231°
2026-04-29 20:52 62.77183 9.91871 22393 ft 452 kts 231°
2026-04-29 20:53 62.74959 9.86968 22810 ft 456 kts 231°
2026-04-29 20:53 62.72723 9.82038 23280 ft 458 kts 231°
2026-04-29 20:53 62.70473 9.77087 23720 ft 461 kts 231°
2026-04-29 20:53 62.68237 9.72178 24138 ft 464 kts 231°
2026-04-29 20:54 62.63637 9.62115 24900 ft 468 kts 230°
2026-04-29 20:54 62.61369 9.57170 25333 ft 469 kts 230°
2026-04-29 20:54 62.59061 9.52148 25713 ft 471 kts 230°
2026-04-29 20:55 62.56742 9.47116 26078 ft 473 kts 230°
2026-04-29 20:55 62.54407 9.42059 26456 ft 475 kts 230°
2026-04-29 20:55 62.52062 9.36993 26826 ft 478 kts 230°
2026-04-29 20:55 62.49702 9.31906 27171 ft 479 kts 230°
2026-04-29 20:56 62.47337 9.26821 27596 ft 479 kts 230°
2026-04-29 20:56 62.44979 9.21760 28059 ft 478 kts 230°
2026-04-29 20:56 62.42621 9.16712 28530 ft 476 kts 230°
2026-04-29 20:56 62.40271 9.11693 28981 ft 475 kts 229°
2026-04-29 20:57 62.37927 9.06698 29456 ft 473 kts 229°
2026-04-29 20:57 62.35586 9.01722 29922 ft 472 kts 229°
2026-04-29 20:57 62.33251 8.96769 30337 ft 471 kts 229°
2026-04-29 20:58 62.28581 8.86901 30385 ft 469 kts 229°
2026-04-29 20:58 62.23899 8.77056 30363 ft 472 kts 229°
2026-04-29 20:59 62.19197 8.67214 30406 ft 471 kts 229°
2026-04-29 20:59 62.14516 8.57457 30409 ft 470 kts 229°
2026-04-29 21:00 62.09824 8.47725 30402 ft 470 kts 229°
2026-04-29 21:00 62.05130 8.38029 30427 ft 470 kts 229°
2026-04-29 21:01 62.00428 8.28363 30416 ft 470 kts 229°
2026-04-29 21:01 61.95716 8.18723 30420 ft 470 kts 228°
2026-04-29 21:02 61.90998 8.09109 30431 ft 470 kts 228°
2026-04-29 21:02 61.86306 7.99594 30454 ft 470 kts 228°
2026-04-29 21:03 61.81572 7.90036 30471 ft 470 kts 228°
2026-04-29 21:03 61.76836 7.80515 30463 ft 468 kts 228°
2026-04-29 21:04 61.72118 7.71064 30460 ft 468 kts 227°
2026-04-29 21:04 61.67391 7.61635 30457 ft 468 kts 227°
2026-04-29 21:05 61.62559 7.52393 30450 ft 469 kts 226°
2026-04-29 21:05 61.57703 7.43224 30458 ft 469 kts 226°
2026-04-29 21:06 61.52842 7.34068 30453 ft 469 kts 226°
2026-04-29 21:06 61.47979 7.24947 30457 ft 470 kts 226°
2026-04-29 21:07 61.43107 7.15851 30458 ft 470 kts 226°
2026-04-29 21:07 61.39052 7.08310 30460 ft 470 kts 226°
2026-04-29 21:08 61.33417 6.97877 30027 ft 454 kts 225°
2026-04-29 21:08 61.31067 6.93539 29483 ft 450 kts 225°
2026-04-29 21:08 61.28717 6.89212 28927 ft 451 kts 225°
2026-04-29 21:08 61.26363 6.84885 28379 ft 453 kts 225°
2026-04-29 21:09 61.24025 6.80598 27863 ft 455 kts 225°
2026-04-29 21:09 61.21644 6.76241 27329 ft 457 kts 225°
2026-04-29 21:09 61.19249 6.71866 26814 ft 459 kts 225°
2026-04-29 21:09 61.16847 6.67490 26290 ft 461 kts 225°
2026-04-29 21:10 61.14430 6.63097 25792 ft 462 kts 224°
2026-04-29 21:10 61.12016 6.58716 25299 ft 461 kts 224°
2026-04-29 21:10 61.09611 6.54361 24822 ft 459 kts 224°
2026-04-29 21:10 61.07216 6.50033 24357 ft 456 kts 224°
2026-04-29 21:11 61.04832 6.45735 23863 ft 454 kts 224°
2026-04-29 21:11 61.02457 6.41461 23320 ft 451 kts 224°
2026-04-29 21:11 61.00100 6.37228 22770 ft 448 kts 224°
2026-04-29 21:11 60.97757 6.33028 22235 ft 445 kts 224°
2026-04-29 21:12 60.95429 6.28866 21710 ft 442 kts 224°
2026-04-29 21:12 60.93116 6.24735 21198 ft 439 kts 224°
2026-04-29 21:12 60.90818 6.20640 20689 ft 436 kts 224°
2026-04-29 21:12 60.88531 6.16571 20157 ft 434 kts 224°
2026-04-29 21:13 60.86250 6.12521 19664 ft 432 kts 223°
2026-04-29 21:13 60.83754 6.09084 19165 ft 435 kts 207°
2026-04-29 21:13 60.80849 6.07323 18683 ft 438 kts 193°
2026-04-29 21:13 60.77859 6.06162 18133 ft 436 kts 193°
2026-04-29 21:14 60.74888 6.05035 17580 ft 433 kts 193°
2026-04-29 21:14 60.71937 6.03917 17047 ft 430 kts 193°
2026-04-29 21:14 60.69005 6.02815 16517 ft 427 kts 193°
2026-04-29 21:14 60.66094 6.01727 15996 ft 424 kts 193°
2026-04-29 21:15 60.63199 6.00652 15480 ft 421 kts 193°
2026-04-29 21:15 60.60322 5.99586 14964 ft 419 kts 193°
2026-04-29 21:15 60.57466 5.98497 14471 ft 416 kts 193°
2026-04-29 21:15 60.54665 5.97433 13940 ft 413 kts 193°
2026-04-29 21:16 60.51861 5.96265 13391 ft 409 kts 199°
2026-04-29 21:16 60.49246 5.94136 12857 ft 403 kts 207°
2026-04-29 21:16 60.46682 5.91716 12341 ft 399 kts 208°
2026-04-29 21:16 60.44173 5.89344 11830 ft 397 kts 207°
2026-04-29 21:17 60.41677 5.86977 11325 ft 394 kts 207°
2026-04-29 21:17 60.39238 5.84660 10844 ft 391 kts 207°
2026-04-29 21:17 60.36784 5.82326 10342 ft 389 kts 207°
2026-04-29 21:17 60.34350 5.80015 9830 ft 385 kts 207°
2026-04-29 21:18 60.31935 5.77705 9289 ft 383 kts 207°
2026-04-29 21:18 60.29542 5.75389 8761 ft 380 kts 207°
2026-04-29 21:18 60.27970 5.73864 8422 ft 377 kts 207°
2026-04-29 21:18 60.25620 5.71572 7925 ft 374 kts 207°
2026-04-29 21:19 60.23308 5.69301 7415 ft 362 kts 207°
2026-04-29 21:19 60.21091 5.67127 6942 ft 347 kts 207°
2026-04-29 21:19 60.18959 5.65032 6433 ft 335 kts 207°
2026-04-29 21:19 60.16910 5.63009 6012 ft 321 kts 207°
2026-04-29 21:20 60.14948 5.61061 5622 ft 308 kts 207°
2026-04-29 21:20 60.13067 5.59185 5274 ft 296 kts 207°
2026-04-29 21:20 60.11263 5.57373 4926 ft 284 kts 208°
2026-04-29 21:20 60.09795 5.54948 4584 ft 269 kts 239°
2026-04-29 21:21 60.09066 5.51625 4413 ft 256 kts 252°
2026-04-29 21:21 60.08502 5.48291 4265 ft 249 kts 252°
2026-04-29 21:21 60.07962 5.45066 4033 ft 239 kts 252°
2026-04-29 21:21 60.07447 5.41941 3786 ft 235 kts 252°
2026-04-29 21:22 60.06941 5.38853 3527 ft 232 kts 252°
2026-04-29 21:22 60.06551 5.35745 3246 ft 229 kts 271°
2026-04-29 21:22 60.07052 5.32848 3051 ft 218 kts 312°
2026-04-29 21:22 60.08143 5.30913 3034 ft 204 kts 322°
2026-04-29 21:23 60.09259 5.29215 2983 ft 202 kts 328°
2026-04-29 21:23 60.10542 5.28112 2958 ft 201 kts 346°
2026-04-29 21:23 60.11915 5.27590 2963 ft 200 kts 351°
2026-04-29 21:23 60.13288 5.27156 2962 ft 200 kts 351°
2026-04-29 21:24 60.14647 5.26713 2873 ft 197 kts 351°
2026-04-29 21:24 60.15995 5.26267 2613 ft 195 kts 351°
2026-04-29 21:24 60.17300 5.25834 2420 ft 185 kts 351°
2026-04-29 21:24 60.18547 5.25420 2166 ft 178 kts 351°
2026-04-29 21:25 60.19746 5.25021 1939 ft 171 kts 351°
2026-04-29 21:25 60.20905 5.24634 1696 ft 165 kts 350°
2026-04-29 21:25 60.21991 5.24272 1482 ft 151 kts 350°
2026-04-29 21:25 60.23004 5.23936 1260 ft 145 kts 350°
2026-04-29 21:26 60.23998 5.23615 1028 ft 143 kts 349°
2026-04-29 21:26 60.24975 5.23272 866 ft 144 kts 350°
2026-04-29 21:26 60.25968 5.22943 670 ft 145 kts 349°
2026-04-29 21:26 60.26948 5.22622 467 ft 143 kts 348°
2026-04-29 21:27 60.27923 5.22285 290 ft 141 kts 349°
2026-04-29 21:27 60.28843 5.21985 178 ft 125 kts 349°
2026-04-29 21:27 60.29475 5.21769 175 ft 42 kts 351°
2026-04-29 21:27 60.29662 5.21711 176 ft 10 kts 360°
2026-04-29 21:28 60.29712 5.21806 175 ft 13 kts 74°
2026-04-29 21:28 60.29698 5.22007 172 ft 17 kts 141°
2026-04-29 21:28 60.29573 5.22065 175 ft 22 kts 171°
2026-04-29 21:28 60.29385 5.22126 178 ft 32 kts 169°
2026-04-29 21:29 60.29158 5.22207 177 ft 33 kts 171°
2026-04-29 21:29 60.28937 5.22276 176 ft 30 kts 171°
2026-04-29 21:29 60.28808 5.22318 176 ft 18 kts 171°
2026-04-29 21:29 60.28703 5.22375 176 ft 13 kts 134°
2026-04-29 21:30 60.28707 5.22543 176 ft 13 kts 75°
2026-04-29 21:30 60.28736 5.22722 176 ft 9 kts 49°
2026-04-29 21:30 60.28771 5.22828 176 ft 7 kts 78°
2026-04-29 21:30 60.28776 5.22877 176 ft 2 kts 80°
2026-04-29 21:31 60.28776 5.22878 176 ft 0 kts 80°